Weather WX

World > North America > United States > Ohio

Rayland, Ohio Regional Weather

Lat: 40.18N, Lon: 80.69W
Wx Zone: OHZ050
Warning FLW WEATHER ALERT - (More Info. Click Here) Warning
Feedback

Rayland, OH Regional Weather

Expires:201906161500;;163230
ASUS41 KCLE 161412
RWRCLE
OHIO REGIONAL WEATHER ROUNDUP
NATIONAL WEATHER SERVICE WILMINGTON, OH
1000 AM EDT SUN JUN 16 2019

NOTE: "FAIR" INDICATES FEW OR NO CLOUDS BELOW 12,000 FEET WITH NO
SIGNIFICANT WEATHER AND/OR OBSTRUCTIONS TO VISIBILITY.


OHZ036-037-039>041-045>050-054>059-063>069-073>076-082>088-161500-
  CENTRAL AND SOUTHEAST OHIO
  
CITY           SKY/WX    TMP DP  RH WIND       PRES   REMARKS
COLUMBUS       LGT RAIN  68  66  93 S7        29.85R                  
OSU AIRPORT    LGT RAIN  68  67  96 S8        29.83S                  
BOLTON FIELD   LGT RAIN  68  66  94 S8        29.86F                  
RICKENBACK AFB LGT RAIN  67  66  99 S7        29.86S                  
NEWARK         LGT RAIN  70  66  87 SW7       29.87R                  
MARION         NOT AVBL                                               
LANCASTER      CLOUDY    68  65  90 SW8       29.88R                  
ZANESVILLE     LGT RAIN  68  65  90 S6        29.87R                  
NEW PHILLY     PTSUNNY   69  65  86 S7        29.86F                  
$$
  

SKY/WX - Weather  TMP - Temperature  DP - Dew Point  RH - Relative Humidity
WIND - Wind Direction/Speed PRES - Barometric Pressure VSB - Visibility
WCI - Wind Chill Index E13G22 Wind - East Wind 13 mph/Gusts of 22 mph